Location: �chenoz-la-M�line
(47.6009°N, 6.1354°E)
Time: 12:58:14
(UTC+00:00)

Cosmos 2278 Rocket - Pass Details

Date: 27 January 2021
Orbit: 840 x 847 km, 71.0° (Epoch: 03 March)

Event Time Altitude Azimuth Distance (km) Brightness Sun altitude
Exits shadow 05:18:40 14° 224° (SW) 2,222 4.0 -18.4°
Drops below altitude 10° 05:19:40 10° 216° (SW) 2,462 4.3 -18.2°
Sets 05:22:44 0° 199° (SSW) 3,391 5.2 -17.7°
